GW3509 Weather Reports


Display with metric or nautical units.
time (UTC)temp
F
wind
direction
speed
MPH
gust
MPH
rain 1hr
in
rain 24hr
in
rain mn
in
humidity
%
barometer
mb
20260504171223 0 3 1.0 2.0 0.00 0.00 0.00 1002.0
20260504170720 0 169 3.0 3.0 0.00 0.00 0.00 1002.3
20260504170217 0 117 0.0 1.0 0.00 0.00 0.00 1002.5
20260504160136 0 77 0.0 0.0 0.00 0.00 0.00 1003.8
20260504151103 0 72 0.0 0.0 0.00 0.00 0.00 1003.9
20260504150601 0 34 2.0 2.0 0.00 0.00 0.00 1003.9
20260504141026 0 59 0.0 1.0 0.00 0.00 0.00 1003.9
20260504140523 0 94 1.0 1.0 0.00 0.00 0.00 1003.9
20260504130447 0 88 0.0 0.0 0.00 0.00 0.00 1004.6
20260504110329 0 89 0.0 0.0 0.00 0.00 0.00 1005.0
20260504100245 0 94 0.0 0.0 0.00 0.00 0.00 1004.6
20260504081639 0 79 0.0 0.0 0.00 0.00 0.00 1004.1
20260504081135 0 81 0.0 0.0 0.00 0.00 0.00 1004.3
20260504080632 0 95 0.0 0.0 0.00 0.00 0.00 1004.3
20260504080128 0 83 0.0 0.0 0.00 0.00 0.00 1004.3
20260504050444 0 68 0.0 0.0 0.00 0.00 0.00 1004.9
20260504045941 0 66 0.0 0.0 0.00 0.00 0.00 1005.0
20260504045437 0 79 0.0 0.0 0.00 0.00 0.00 1005.0
20260504044933 0 49 1.0 1.0 0.00 0.00 0.00 1005.4
20260504044431 0 59 0.0 0.0 0.00 0.00 0.00 1005.2
20260504043928 0 82 0.0 0.0 0.00 0.00 0.00 1005.4
20260504043425 0 78 0.0 0.0 0.00 0.00 0.00 1005.4
20260504042918 0 89 0.0 0.0 0.00 0.00 0.00 1005.6
20260504042414 0 80 0.0 0.0 0.00 0.00 0.00 1005.6
20260504041910 0 52 0.0 1.0 0.00 0.00 0.00 1005.6
20260504041407 0 56 0.0 0.0 0.00 0.00 0.00 1005.7
20260504040903 0 63 0.0 0.0 0.00 0.00 0.00 1005.8
20260504040400 0 77 0.0 0.0 0.00 0.00 0.00 1005.9
20260504035855 0 37 0.0 0.0 0.00 0.00 0.00 1005.8
20260504035353 0 75 0.0 0.0 0.00 0.00 0.00 1005.8
20260504034849 0 74 0.0 0.0 0.00 0.00 0.00 1006.0
20260504034347 0 81 0.0 0.0 0.00 0.00 0.00 1006.2
20260504033844 0 81 0.0 0.0 0.00 0.00 0.00 1006.4
20260504033342 0 66 0.0 0.0 0.00 0.00 0.00 1006.5
20260504032838 0 66 0.0 0.0 0.00 0.00 0.00 1006.3
20260504032336 0 68 0.0 0.0 0.00 0.00 0.00 1006.6
20260504031832 0 57 0.0 0.0 0.00 0.00 0.00 1006.3
20260504031330 0 74 0.0 0.0 0.00 0.00 0.00 1006.2
20260504030826 0 50 0.0 0.0 0.00 0.00 0.00 1006.0
20260504030323 0 81 0.0 0.0 0.00 0.00 0.00 1006.0
20260504025819 0 64 0.0 0.0 0.00 0.00 0.00 1006.0
20260504025317 0 81 0.0 0.0 0.00 0.00 0.00 1006.1
20260504024813 0 70 0.0 0.0 0.00 0.00 0.00 1006.2
20260504024310 0 75 0.0 0.0 0.00 0.00 0.00 1005.9
20260504023806 0 71 0.0 0.0 0.00 0.00 0.00 1006.3
20260504023303 0 54 1.0 1.0 0.00 0.00 0.00 1006.0
20260504022759 0 75 1.0 1.0 0.00 0.00 0.00 1006.2
20260504022256 0 68 0.0 0.0 0.00 0.00 0.00 1006.0
20260504021752 0 73 0.0 1.0 0.00 0.00 0.00 1006.2
20260504021250 0 75 0.0 0.0 0.00 0.00 0.00 1006.1
20260504020747 0 59 0.0 0.0 0.00 0.00 0.00 1006.3
20260504020243 0 70 0.0 0.0 0.00 0.00 0.00 1006.0
20260504015739 0 74 0.0 0.0 0.00 0.00 0.00 1006.3
20260504015236 0 71 0.0 0.0 0.00 0.00 0.00 1006.1
20260504014731 0 67 0.0 0.0 0.00 0.00 0.00 1005.8
20260504014228 0 63 0.0 0.0 0.00 0.00 0.00 1005.9
20260504013726 0 59 1.0 1.0 0.00 0.00 0.00 1005.9
20260504013224 0 65 0.0 1.0 0.00 0.00 0.00 1006.1
20260504012720 0 71 0.0 0.0 0.00 0.00 0.00 1006.0
20260504012218 0 58 1.0 1.0 0.00 0.00 0.00 1005.9
20260504011714 0 73 0.0 0.0 0.00 0.00 0.00 1005.8
20260504011211 0 62 0.0 1.0 0.00 0.00 0.00 1005.9
20260504010707 0 61 1.0 1.0 0.00 0.00 0.00 1006.0
20260504010203 0 70 0.0 0.0 0.00 0.00 0.00 1006.0
20260504005700 0 75 0.0 0.0 0.00 0.00 0.00 1005.7
20260504005157 0 70 0.0 0.0 0.00 0.00 0.00 1005.8
20260504004655 0 80 0.0 0.0 0.00 0.00 0.00 1005.7
20260504004151 0 85 0.0 0.0 0.00 0.00 0.00 1005.6
20260504003648 0 82 0.0 0.0 0.00 0.00 0.00 1005.8
20260504003144 0 79 0.0 0.0 0.00 0.00 0.00 1005.5
20260504002641 0 91 0.0 0.0 0.00 0.00 0.00 1005.7
20260504002139 0 101 0.0 0.0 0.00 0.00 0.00 1005.9
20260504001637 0 120 0.0 1.0 0.00 0.00 0.00 1005.8
20260504001132 0 41 1.0 2.0 0.00 0.00 0.00 1005.8
20260504000630 0 68 2.0 2.0 0.00 0.00 0.00 1005.8
20260504000127 0 108 1.0 1.0 0.00 0.00 0.00 1005.7
20260503235625 0 180 0.0 1.0 0.00 0.00 0.00 1005.8
20260503235121 0 85 0.0 0.0 0.00 0.00 0.00 1005.6
20260503234620 0 65 1.0 1.0 0.00 0.00 0.00 1005.9
20260503234117 0 315 1.0 1.0 0.00 0.00 0.00 1005.7
20260503233614 0 156 1.0 1.0 0.00 0.00 0.00 1005.9
20260503233110 0 59 1.0 1.0 0.00 0.00 0.00 1005.6
20260503232607 0 203 1.0 1.0 0.00 0.00 0.00 1005.8
20260503232104 0 62 2.0 2.0 0.00 0.00 0.00 1005.9
20260503231602 0 98 0.0 0.0 0.00 0.00 0.00 1006.0
20260503231059 0 62 3.0 3.0 0.00 0.00 0.00 1005.9
20260503230555 0 81 1.0 1.0 0.00 0.00 0.00 1005.8
20260503230053 0 109 1.0 1.0 0.00 0.00 0.00 1006.1
20260503225549 0 99 3.0 3.0 0.00 0.00 0.00 1006.0
20260503225044 0 104 1.0 1.0 0.00 0.00 0.00 1006.2
20260503224542 0 93 1.0 1.0 0.00 0.00 0.00 1006.3
20260503224040 0 193 2.0 2.0 0.00 0.00 0.00 1006.3
20260503223538 0 113 1.0 2.0 0.00 0.00 0.00 1006.3
20260503223033 0 76 2.0 3.0 0.00 0.00 0.00 1006.4
20260503222531 0 203 2.0 2.0 0.00 0.00 0.00 1006.2
20260503222029 0 341 3.0 5.0 0.00 0.00 0.00 1006.2
20260503221527 0 84 3.0 3.0 0.00 0.00 0.00 1006.3
20260503221024 0 180 1.0 2.0 0.00 0.00 0.00 1006.1
20260503220520 0 26 5.0 8.0 0.00 0.00 0.00 1006.1
20260503220017 0 46 2.0 3.0 0.00 0.00 0.00 1006.2
20260503215514 0 286 1.0 1.0 0.00 0.00 0.00 1006.2
20260503215011 0 151 3.0 3.0 0.00 0.00 0.00 1006.5
20260503214510 0 185 2.0 2.0 0.00 0.00 0.00 1006.2
20260503214006 0 160 2.0 3.0 0.00 0.00 0.00 1006.2
20260503213504 0 119 2.0 3.0 0.00 0.00 0.00 1006.4
20260503213000 0 183 4.0 6.0 0.00 0.00 0.00 1006.4
20260503212458 0 168 3.0 3.0 0.00 0.00 0.00 1006.5
20260503211955 0 203 3.0 5.0 0.00 0.00 0.00 1006.7
20260503211452 0 25 1.0 2.0 0.00 0.00 0.00 1006.7
20260503210948 0 214 1.0 2.0 0.00 0.00 0.00 1006.6
20260503210445 0 11 1.0 2.0 0.00 0.00 0.00 1006.6
20260503205939 0 200 1.0 2.0 0.00 0.00 0.00 1006.6
20260503205437 0 210 2.0 2.0 0.00 0.00 0.00 1006.9
20260503204932 78 256 3.0 3.0 0.00 0.00 0.00 34 1006.9
20260503204430 78 127 3.0 6.0 0.00 0.00 0.00 36 1007.2
20260503203927 78 70 2.0 2.0 0.00 0.00 0.00 40 1007.3
20260503203424 78 347 3.0 5.0 0.00 0.00 0.00 34 1007.3
20260503202921 78 355 1.0 5.0 0.00 0.00 0.00 35 1007.5
20260503202419 78 322 1.0 2.0 0.00 0.00 0.00 36 1007.7
20260503201918 77 100 3.0 3.0 0.00 0.00 0.00 36 1007.6
20260503201414 78 86 1.0 1.0 0.00 0.00 0.00 34 1007.8
20260503200912 77 128 3.0 3.0 0.00 0.00 0.00 35 1008.1
20260503200408 77 206 2.0 2.0 0.00 0.00 0.00 43 1007.9
20260503195905 77 198 2.0 2.0 0.00 0.00 0.00 36 1008.3
20260503195401 76 63 2.0 2.0 0.00 0.00 0.00 39 1008.8
20260503194858 76 168 3.0 3.0 0.00 0.00 0.00 43 1008.6
20260503194355 77 223 4.0 6.0 0.00 0.00 0.00 40 1008.8
20260503193851 77 35 2.0 2.0 0.00 0.00 0.00 39 1009.0
20260503193347 76 127 2.0 2.0 0.00 0.00 0.00 40 1009.2
20260503192843 75 16 5.0 6.0 0.00 0.00 0.00 37 1009.3
20260503192338 75 214 2.0 2.0 0.00 0.00 0.00 38 1009.4
20260503191835 75 117 3.0 3.0 0.00 0.00 0.00 39 1009.5
20260503191332 75 139 3.0 3.0 0.00 0.00 0.00 39 1010.0
20260503190829 74 117 1.0 2.0 0.00 0.00 0.00 38 1010.0
20260503190326 75 154 2.0 2.0 0.00 0.00 0.00 37 1010.0
20260503185823 74 89 1.0 1.0 0.00 0.00 0.00 40 1010.0
20260503185320 74 21 5.0 6.0 0.00 0.00 0.00 39 1010.3
20260503184819 73 200 2.0 3.0 0.00 0.00 0.00 37 1010.3
20260503184316 74 324 3.0 3.0 0.00 0.00 0.00 34 1010.1
20260503183811 74 178 3.0 3.0 0.00 0.00 0.00 39 1010.4
20260503183309 73 145 2.0 2.0 0.00 0.00 0.00 40 1010.6
20260503182806 73 175 6.0 7.0 0.00 0.00 0.00 36 1010.7
20260503182306 72 178 2.0 3.0 0.00 0.00 0.00 38 1010.9
20260503181802 72 145 2.0 2.0 0.00 0.00 0.00 36 1010.7
20260503181259 72 68 5.0 6.0 0.00 0.00 0.00 37 1010.9
20260503180755 72 251 4.0 5.0 0.00 0.00 0.00 38 1011.3
20260503180253 71 90 1.0 2.0 0.00 0.00 0.00 42 1011.4
20260503175749 72 123 3.0 6.0 0.00 0.00 0.00 37 1011.6
20260503175248 72 168 3.0 3.0 0.00 0.00 0.00 40 1011.8
20260503174743 71 155 4.0 7.0 0.00 0.00 0.00 39 1012.0
20260503174242 71 54 1.0 1.0 0.00 0.00 0.00 37 1012.3
20260503173737 70 78 2.0 2.0 0.00 0.00 0.00 39 1012.2
20260503173233 70 142 2.0 2.0 0.00 0.00 0.00 43 1012.2
20260503172730 69 338 5.0 7.0 0.00 0.00 0.00 43 1012.4
20260503172227 69 217 2.0 3.0 0.00 0.00 0.00 42 1012.6
20260503171723 69 63 3.0 3.0 0.00 0.00 0.00 39 1012.9